PST,Max TemperatureF,Mean TemperatureF,Min TemperatureF,Max Dew PointF,MeanDew PointF,Min DewpointF,Max Humidity, Mean Humidity, Min Humidity, Max Sea Level PressureIn, Mean Sea Level PressureIn, Min Sea Level PressureIn, Max VisibilityMiles, Mean VisibilityMiles, Min VisibilityMiles, Max Wind SpeedMPH, Mean Wind SpeedMPH, Max Gust SpeedMPH,PrecipitationIn, CloudCover, Events, WindDirDegrees
2011-12-1,47,38,29,41,36,28,100,92,79,30.79,30.62,30.45,10,8,2,8,2,12,0.05,6,Rain,88
2011-12-2,49,40,30,40,34,30,100,96,71,30.52,30.48,30.44,10,4,0,7,2,9,0.01,2,Fog,61
2011-12-3,42,35,27,39,35,27,100,93,87,30.53,30.50,30.47,10,10,8,8,2,10,0.00,6,,79
2011-12-4,47,38,28,38,31,28,100,94,66,30.60,30.55,30.50,10,3,0,6,1,8,0.00,3,Fog,91
2011-12-5,44,36,28,38,33,28,100,94,79,30.57,30.46,30.42,10,6,1,8,1,10,0.00,4,,66
2011-12-6,42,36,30,41,37,28,100,96,89,30.48,30.44,30.41,10,5,1,7,1,8,0.03,8,Rain,89
2011-12-7,48,40,31,43,39,30,100,95,82,30.45,30.44,30.41,10,5,0,13,3,14,0.03,6,Fog-Rain,28
2011-12-8,44,35,26,37,30,26,100,93,73,30.45,30.41,30.35,10,6,1,7,1,8,0.00,1,,49
2011-12-9,47,36,24,38,29,23,100,95,71,30.33,30.21,30.14,10,4,0,7,1,9,0.00,2,Fog,84
2011-12-10,42,35,27,41,36,26,100,97,93,30.17,30.13,30.10,10,4,0,9,0,13,0.05,7,Fog-Rain,39
2011-12-11,44,36,27,37,31,28,100,94,65,30.24,30.13,30.09,10,4,0,13,3,17,0.00,4,Fog,19
2011-12-12,43,34,24,30,27,23,96,82,53,30.25,30.19,30.09,10,10,10,10,3,13,0.00,0,,40
2011-12-13,42,35,27,34,31,27,96,85,65,30.12,30.06,30.02,10,10,10,7,0,8,0.00,8,,80
2011-12-14,43,39,34,39,35,32,100,85,74,30.15,30.07,30.01,10,10,6,10,4,16,0.09,8,Rain,118
2011-12-15,46,43,39,43,41,37,100,95,87,30.44,30.30,30.04,10,8,1,10,2,13,0.05,8,Rain,81
2011-12-16,49,47,44,45,44,42,100,91,86,30.47,30.42,30.38,10,9,4,12,4,18,T,8,Rain,166
2011-12-17,52,46,39,45,42,37,100,93,74,30.35,30.13,30.05,10,7,2,13,4,16,0.30,5,Rain,187
2011-12-18,49,43,36,45,42,36,100,96,86,30.45,30.27,30.07,10,3,0,8,1,12,0.04,7,Fog-Rain,45
2011-12-19,47,42,36,45,39,36,100,95,81,30.46,30.43,30.38,10,5,0,8,1,13,0.01,7,Fog-Rain,168
2011-12-20,49,42,35,45,41,34,100,94,81,30.37,30.33,30.30,10,6,0,13,3,17,0.06,7,Fog-Rain,346
2011-12-21,46,37,27,37,31,28,100,95,71,30.53,30.43,30.38,10,5,0,9,3,12,0.00,1,Fog,83
2011-12-22,46,37,27,40,32,24,100,84,53,30.47,30.33,30.25,10,7,2,9,4,16,0.12,3,Rain,107
2011-12-23,50,46,41,47,43,32,100,95,87,30.50,30.43,30.31,10,7,2,15,4,24,0.20,8,Rain,152
2011-12-24,49,44,39,47,44,37,100,91,80,30.40,30.35,30.16,10,7,2,17,7,30,1.26,6,Rain,158
2011-12-25,51,44,36,47,41,27,100,90,41,30.33,30.01,29.79,10,7,1,31,10,43,0.68,7,Rain,199
2011-12-26,44,41,38,43,39,37,100,94,87,30.32,30.17,30.01,10,6,2,16,7,30,0.86,8,Rain,141
2011-12-27,51,48,44,52,47,43,100,97,93,30.07,29.88,29.60,8,2,0,24,9,38,2.44,8,Fog-Rain,179
2011-12-28,51,49,47,50,48,44,100,97,90,29.85,29.71,29.55,10,4,1,22,12,30,1.18,8,Rain,209
2011-12-29,49,43,37,48,42,38,100,93,86,30.04,29.77,29.47,10,7,1,20,7,28,0.21,7,Rain,189
2011-12-30,48,40,32,45,37,31,100,83,58,30.24,29.81,29.53,10,9,2,23,10,33,0.21,6,Rain,256
2011-12-31,41,36,30,36,32,30,100,89,76,30.37,30.29,30.20,10,10,9,12,5,16,0.02,3,Rain,73